Location: Clanezzo
(45.7500°N, 9.6000°E)
Time: 08:09:03
(UTC+00:00)

AO-92 - Pass Details

Date: 06 July 2022
Orbit: 469 x 481 km, 97.4° (Epoch: 09 August)

Event Time Altitude Azimuth Distance (km) Brightness Sun altitude
Exits shadow 22:10:05 20° 238° (WSW) 1,178 ? -19.5°
Maximum altitude 22:11:12 23° 266° (W) 1,074 ? -19.5°
Drops below altitude 10° 22:14:06 10° 320° (NW) 1,671 ? -19.7°
Sets 22:16:30 0° 335° (NNW) 2,559 ? -19.8°
